Weather in Bolshoye Kirdyashevo

Russia / Penza Oblast     53°42′22″N   43°46′12″E
temp.,
°C
wind,
m/s
gust,
m/s
humid.,
%
clouds,
%
prec.,
mm/h
press.,
hPa
HPBL,
m
16 september, thu
thu1600:00+9wnw4776100 0.0 1012680
03:00+8wnw477796 0.0 1012618
06:00+7nw5978100 0.1 1013640
09:00+9nw6867100 0.1 10141070
12:00+8nw5679100 0.1 1015826
15:00+10nnw576799 0.1 10161283
18:00+9n4769100 0.1 1017583
21:00+5nw358548 0.2 101899
17 september, fri
fri1700:00+7nw2575100 0.0 1018248
03:00+7nw3671100 0.0 1018388
06:00+7nw2467100 0.0 1019246
09:00+8nw3458100 0.0 1019783
12:00+9wnw3449100 0.0 10181265
15:00+10wnw3547100 0.0 10181480
18:00+9nnw3555100 0.0 1018235
21:00+7n2561100 0.0 1019210
18 september, sat
sat1800:00+6nne266416 0.0 1020236
03:00+2nne23854 0.0 102159
06:00+1n23860 0.0 102258
09:00+7nne45605 0.0 1023558
12:00+11nne33455 0.0 10221291
15:00+12nne434432 0.0 10221485
18:00+7ne4860100 0.0 1024287
21:00+4ene3675100 0.0 1025125
19 september, sun
sun1900:00+3e237499 0.0 102568
03:00+3e2474100 0.0 102572
06:00+2e3578100 0.0 102688
09:00+7e4655100 0.0 1026567
12:00+11ese4542100 0.0 10251106
15:00+11ese4542100 0.0 10241200
18:00+9e4848100 0.0 1023304
21:00+9e51147100 0.0 1023436
20 september, mon
mon2000:00+6ese51281100 1.7 1023498
03:00+5ese61390100 4.9 1022556
06:00+5ese71692100 3.6 1021673
09:00+5ese81793100 11.3 1020818
12:00+5ese81593100 5.5 1020843
15:00+5ese81592100 8.1 1020806
18:00+6ese81692100 2.4 1020862
21:00+6ese81689100 3.4 1019769